EW2973 Weather Reports


Display with metric or nautical units.
time (UTC)temp
F
wind
direction
speed
MPH
gust
MPH
rain 1hr
in
rain 24hr
in
rain mn
in
humidity
%
barometer
mb
20260510060033 61 321 3.0 9.0 0.00 0.22 0.00 70 1011.1
20260510054526 60 241 3.0 7.0 0.00 0.22 0.00 73 1011.1
20260510053022 60 179 1.0 4.0 0.00 0.22 0.00 74 1010.9
20260510051526 60 188 0.0 2.0 0.00 0.23 0.00 74 1010.7
20260510050026 60 190 0.0 2.0 0.00 0.23 0.00 73 1010.6
20260510044531 60 213 1.0 2.0 0.00 0.24 0.00 72 1010.5
20260510043028 60 190 0.0 3.0 0.00 0.24 0.00 71 1010.4
20260510041526 60 180 1.0 4.0 0.00 0.24 0.00 70 1010.3
20260510040026 61 178 1.0 4.0 0.00 0.24 0.00 69 1010.1
20260510034522 61 147 1.0 4.0 0.00 0.24 0.24 68 1010.0
20260510033022 62 186 0.0 2.0 0.00 0.24 0.24 67 1010.0
20260510031526 62 184 0.0 2.0 0.00 0.24 0.24 66 1009.8
20260510030027 63 205 0.0 2.0 0.00 0.24 0.24 65 1009.8
20260510024526 63 209 0.0 4.0 0.00 0.24 0.24 64 1009.8
20260510023026 64 217 0.0 3.0 0.00 0.24 0.24 63 1009.7
20260510021524 64 201 0.0 4.0 0.00 0.24 0.24 62 1009.5
20260510020022 65 221 1.0 5.0 0.00 0.24 0.24 61 1009.3
20260510014523 65 173 1.0 5.0 0.00 0.24 0.24 60 1009.1
20260510013028 66 203 2.0 4.0 0.00 0.24 0.24 59 1008.9
20260510011534 66 181 2.0 4.0 0.00 0.25 0.24 58 1008.6
20260510010035 67 179 2.0 8.0 0.00 0.25 0.24 56 1008.7
20260510004526 68 244 2.0 9.0 0.00 0.26 0.24 55 1008.6
20260510003025 68 222 2.0 9.0 0.00 0.26 0.24 53 1008.3
20260510001526 69 275 4.0 16.0 0.00 0.26 0.24 52 1008.1
20260510000022 69 210 3.0 18.0 0.00 0.26 0.24 52 1007.9
20260509234528 69 215 4.0 13.0 0.00 0.26 0.24 51 1007.8
20260509233028 70 229 3.0 12.0 0.00 0.26 0.24 50 1007.9
20260509231532 70 293 5.0 18.0 0.00 0.26 0.24 48 1007.6
20260509230027 70 245 10.0 18.0 0.00 0.26 0.24 48 1007.7
20260509224526 70 238 8.0 14.0 0.00 0.26 0.24 51 1007.6
20260509223023 70 254 4.0 13.0 0.00 0.26 0.24 52 1007.4
20260509221551 70 202 8.0 15.0 0.00 0.26 0.24 53 1007.5
20260509220029 70 214 7.0 15.0 0.00 0.26 0.24 53 1007.6
20260509214527 70 263 5.0 13.0 0.00 0.26 0.24 53 1007.7
20260509213028 71 246 6.0 14.0 0.00 0.26 0.24 53 1007.9
20260509211526 71 207 5.0 15.0 0.00 0.26 0.24 52 1008.0
20260509210025 71 174 8.0 17.0 0.00 0.26 0.24 51 1007.9
20260509204523 71 254 5.0 14.0 0.00 0.26 0.24 52 1008.0
20260509203022 71 227 5.0 20.0 0.00 0.26 0.24 53 1008.2
20260509201520 70 252 7.0 15.0 0.00 0.26 0.24 54 1008.2
20260509200018 70 130 6.0 19.0 0.00 0.26 0.24 55 1008.5
20260509194516 70 198 5.0 12.0 0.00 0.26 0.24 56 1008.5
20260509193012 70 232 4.0 12.0 0.00 0.26 0.24 58 1008.5
20260509191527 69 277 4.0 13.0 0.00 0.26 0.24 60 1008.7
20260509190040 69 206 3.0 13.0 0.00 0.26 0.24 60 1008.8
20260509184531 68 237 5.0 12.0 0.00 0.26 0.24 60 1008.8
20260509183027 67 254 4.0 12.0 0.00 0.26 0.24 63 1009.0
20260509181516 66 252 4.0 10.0 0.00 0.26 0.24 62 1009.0
20260509180013 67 208 4.0 13.0 0.00 0.26 0.24 67 1009.2
20260509174512 65 220 4.0 15.0 0.00 0.26 0.24 69 1009.3
20260509173029 64 142 3.0 15.0 0.00 0.26 0.24 66 1009.3
20260509171526 64 236 6.0 12.0 0.00 0.26 0.24 68 1009.4
20260509170030 63 248 5.0 11.0 0.00 0.26 0.24 70 1009.4
20260509164519 63 207 5.0 11.0 0.00 0.26 0.24 72 1009.5
20260509163029 62 228 1.0 8.0 0.00 0.26 0.24 75 1009.5
20260509161526 62 229 4.0 11.0 0.00 0.26 0.24 74 1009.6
20260509160026 62 172 3.0 8.0 0.00 0.26 0.24 75 1009.4
20260509154527 61 195 3.0 10.0 0.00 0.26 0.24 77 1009.4
20260509153029 60 205 3.0 11.0 0.00 0.26 0.24 81 1009.4
20260509151522 59 165 4.0 10.0 0.00 0.26 0.24 84 1009.2
20260509150027 58 208 4.0 11.0 0.00 0.26 0.24 84 1009.1
20260509144529 58 225 2.0 8.0 0.00 0.26 0.24 87 1009.0
20260509143026 57 268 3.0 9.0 0.00 0.26 0.24 87 1009.0
20260509141534 57 185 2.0 7.0 0.00 0.26 0.24 88 1009.0
20260509140033 56 213 2.0 7.0 0.00 0.26 0.24 91 1008.9
20260509134508 55 227 2.0 7.0 0.00 0.26 0.24 92 1009.1
20260509133030 55 191 1.0 5.0 0.00 0.26 0.24 93 1009.2
20260509131522 54 189 3.0 6.0 0.02 0.26 0.24 94 1009.0
20260509130039 53 223 2.0 5.0 0.02 0.26 0.24 94 1009.0
20260509124527 53 262 0.0 3.0 0.02 0.26 0.24 94 1009.1
20260509123025 53 254 1.0 4.0 0.02 0.26 0.24 94 1008.7
20260509121515 53 246 1.0 4.0 0.00 0.24 0.22 94 1009.0
20260509120012 53 232 1.0 4.0 0.00 0.24 0.22 94 1009.0
20260509114525 53 220 0.0 5.0 0.00 0.24 0.22 93 1009.1
20260509113024 53 248 0.0 5.0 0.01 0.24 0.22 93 1009.1
20260509111520 53 236 3.0 6.0 0.02 0.24 0.22 94 1009.0
20260509110025 53 231 2.0 7.0 0.03 0.24 0.22 94 1009.2
20260509104516 53 223 2.0 8.0 0.04 0.24 0.22 94 1009.1
20260509103011 52 248 2.0 4.0 0.04 0.23 0.21 94 1009.2
20260509101526 52 232 3.0 5.0 0.03 0.22 0.20 94 1009.0
20260509100032 52 248 4.0 7.0 0.03 0.21 0.19 93 1009.0
20260509094524 52 229 2.0 6.0 0.02 0.20 0.18 93 1009.1
20260509093026 52 184 3.0 7.0 0.01 0.19 0.17 93 1009.2
20260509091520 53 234 2.0 6.0 0.02 0.19 0.17 93 1009.2
20260509090021 53 236 2.0 6.0 0.03 0.18 0.16 93 1009.3
20260509084515 52 205 2.0 5.0 0.05 0.18 0.16 93 1009.4
20260509083028 53 213 1.0 5.0 0.07 0.18 0.16 93 1009.5
20260509081538 53 191 1.0 4.0 0.08 0.17 0.15 93 1009.7
20260509080025 53 190 1.0 4.0 0.07 0.15 0.13 93 1009.7
20260509074520 53 186 1.0 4.0 0.07 0.13 0.11 92 1009.9
20260509073020 53 163 2.0 5.0 0.06 0.11 0.09 92 1009.9
20260509071519 53 153 0.0 2.0 0.05 0.09 0.07 92 1009.8
20260509070016 53 211 0.0 2.0 0.04 0.08 0.06 92 1009.9
20260509064529 52 228 0.0 2.0 0.02 0.06 0.04 92 1010.0
20260509063025 52 211 0.0 2.0 0.01 0.05 0.03 92 1010.3
20260509061524 52 192 0.0 0.0 0.01 0.04 0.02 92 1010.3